| time (UTC) | temp C | wind direction | speed KPH | gust KPH | rain 1hr cm | rain 24hr cm | rain mn cm | humidity % | barometer mb |
| 20260506033843 | 6 | 166 | 1.6 | 3.2 | 0.00 | 0.08 | 0.08 | 78 | 1012.2 |
| 20260506033353 | 6 | 166 | 0.0 | 1.6 | 0.00 | 0.08 | 0.08 | 78 | 1012.2 |
| 20260506032838 | 7 | 166 | 0.0 | 3.2 | 0.00 | 0.08 | 0.08 | 77 | 1011.8 |
| 20260506032346 | 7 | 166 | 1.6 | 3.2 | 0.00 | 0.08 | 0.08 | 77 | 1011.8 |
| 20260506031912 | 7 | 166 | 0.0 | 1.6 | 0.00 | 0.08 | 0.08 | 78 | 1011.8 |
| 20260506031353 | 7 | 166 | 0.0 | 3.2 | 0.00 | 0.08 | 0.08 | 78 | 1011.6 |
| 20260506030856 | 7 | 166 | 0.0 | 3.2 | 0.00 | 0.08 | 0.08 | 78 | 1011.6 |
| 20260506030405 | 7 | 166 | 0.0 | 0.0 | 0.00 | 0.08 | 0.08 | 77 | 1011.6 |
| 20260506025856 | 7 | 166 | 0.0 | 0.0 | 0.00 | 0.08 | 0.08 | 77 | 1011.4 |
| 20260506025337 | 7 | 166 | 0.0 | 0.0 | 0.00 | 0.08 | 0.08 | 76 | 1011.4 |
| 20260506024842 | 7 | 166 | 0.0 | 0.0 | 0.00 | 0.08 | 0.08 | 77 | 1011.4 |
| 20260506024342 | 7 | 166 | 0.0 | 1.6 | 0.00 | 0.08 | 0.08 | 75 | 1011.7 |
| 20260506023843 | 8 | 166 | 0.0 | 3.2 | 0.00 | 0.08 | 0.08 | 75 | 1011.7 |
| 20260506023345 | 8 | 166 | 1.6 | 4.8 | 0.00 | 0.08 | 0.08 | 75 | 1011.7 |
| 20260506022856 | 8 | 166 | 1.6 | 4.8 | 0.00 | 0.08 | 0.08 | 75 | 1011.6 |
| 20260506022344 | 8 | 166 | 0.0 | 8.0 | 0.00 | 0.08 | 0.08 | 72 | 1011.6 |
| 20260506021856 | 8 | 175 | 3.2 | 8.0 | 0.00 | 0.08 | 0.08 | 71 | 1011.6 |
| 20260506021353 | 9 | 161 | 1.6 | 6.4 | 0.00 | 0.08 | 0.08 | 69 | 1011.1 |
| 20260506020855 | 9 | 156 | 1.6 | 9.7 | 0.00 | 0.08 | 0.08 | 69 | 1011.1 |
| 20260506020338 | 9 | 158 | 4.8 | 9.7 | 0.00 | 0.08 | 0.08 | 67 | 1011.1 |
| 20260506015842 | 10 | 157 | 1.6 | 11.3 | 0.00 | 0.08 | 0.08 | 66 | 1011.5 |
| 20260506015349 | 10 | 173 | 4.8 | 11.3 | 0.00 | 0.08 | 0.08 | 64 | 1011.5 |
| 20260506014830 | 10 | 181 | 6.4 | 11.3 | 0.00 | 0.08 | 0.08 | 63 | 1011.5 |
| 20260506014338 | 10 | 185 | 8.0 | 11.3 | 0.00 | 0.08 | 0.08 | 62 | 1010.8 |
| 20260506013856 | 10 | 146 | 4.8 | 11.3 | 0.00 | 0.08 | 0.08 | 61 | 1010.8 |
| 20260506013405 | 11 | 195 | 6.4 | 17.7 | 0.00 | 0.08 | 0.08 | 61 | 1010.8 |
| 20260506012846 | 11 | 211 | 9.7 | 17.7 | 0.00 | 0.08 | 0.08 | 60 | 1010.8 |
| 20260506012359 | 11 | 157 | 1.6 | 8.0 | 0.00 | 0.08 | 0.08 | 60 | 1010.8 |
| 20260506011848 | 11 | 152 | 6.4 | 9.7 | 0.00 | 0.08 | 0.08 | 60 | 1010.8 |
| 20260506011329 | 11 | 151 | 6.4 | 11.3 | 0.00 | 0.08 | 0.08 | 57 | 1010.8 |
| 20260506010856 | 11 | 138 | 6.4 | 11.3 | 0.00 | 0.08 | 0.08 | 58 | 1010.8 |
| 20260506010334 | 11 | 193 | 3.2 | 8.0 | 0.00 | 0.08 | 0.08 | 58 | 1010.8 |
| 20260506005904 | 12 | 200 | 4.8 | 11.3 | 0.00 | 0.08 | 0.08 | 59 | 1010.8 |
| 20260506005351 | 11 | 127 | 4.8 | 11.3 | 0.00 | 0.08 | 0.08 | 57 | 1010.8 |
| 20260506004859 | 11 | 140 | 3.2 | 11.3 | 0.00 | 0.08 | 0.08 | 57 | 1010.8 |
| 20260506004410 | 12 | 140 | 4.8 | 9.7 | 0.00 | 0.08 | 0.08 | 55 | 1010.8 |
| 20260506003845 | 12 | 165 | 6.4 | 9.7 | 0.00 | 0.08 | 0.08 | 58 | 1010.8 |
| 20260506003344 | 11 | 138 | 0.0 | 9.7 | 0.00 | 0.08 | 0.08 | 58 | 1010.8 |
| 20260506002913 | 12 | 138 | 8.0 | 9.7 | 0.00 | 0.08 | 0.08 | 58 | 1010.7 |
| 20260506002332 | 12 | 155 | 3.2 | 8.0 | 0.00 | 0.08 | 0.08 | 56 | 1010.7 |
| 20260506001848 | 12 | 180 | 4.8 | 8.0 | 0.00 | 0.08 | 0.08 | 57 | 1010.7 |
| 20260506001411 | 11 | 146 | 3.2 | 8.0 | 0.00 | 0.08 | 0.08 | 60 | 1010.9 |
| 20260506000854 | 11 | 137 | 1.6 | 8.0 | 0.00 | 0.08 | 0.08 | 60 | 1010.9 |
| 20260506000338 | 11 | 123 | 1.6 | 8.0 | 0.00 | 0.08 | 0.08 | 59 | 1010.9 |
| 20260505235907 | 11 | 129 | 4.8 | 8.0 | 0.00 | 0.08 | 0.08 | 60 | 1010.9 |
| 20260505235355 | 11 | 133 | 3.2 | 8.0 | 0.00 | 0.08 | 0.08 | 59 | 1010.9 |
| 20260505234831 | 11 | 158 | 4.8 | 8.0 | 0.00 | 0.08 | 0.08 | 61 | 1010.9 |
| 20260505234339 | 11 | 169 | 6.4 | 8.0 | 0.00 | 0.08 | 0.08 | 59 | 1010.9 |
| 20260505233848 | 11 | 171 | 4.8 | 8.0 | 0.00 | 0.08 | 0.08 | 61 | 1010.9 |
| 20260505233330 | 11 | 187 | 0.0 | 8.0 | 0.00 | 0.08 | 0.08 | 60 | 1010.9 |
| 20260505232900 | 11 | 140 | 1.6 | 4.8 | 0.00 | 0.08 | 0.08 | 61 | 1011.0 |
| 20260505232350 | 11 | 148 | 0.0 | 8.0 | 0.00 | 0.08 | 0.08 | 61 | 1011.0 |
| 20260505231834 | 11 | 145 | 0.0 | 9.7 | 0.00 | 0.08 | 0.08 | 59 | 1011.0 |
| 20260505231345 | 11 | 158 | 3.2 | 11.3 | 0.00 | 0.08 | 0.08 | 60 | 1011.1 |
| 20260505230830 | 11 | 137 | 8.0 | 11.3 | 0.00 | 0.08 | 0.08 | 60 | 1011.1 |
| 20260505230337 | 11 | 168 | 4.8 | 8.0 | 0.00 | 0.08 | 0.08 | 59 | 1011.1 |
| 20260505225850 | 11 | 173 | 4.8 | 8.0 | 0.00 | 0.08 | 0.08 | 60 | 1011.6 |
| 20260505225353 | 10 | 158 | 1.6 | 9.7 | 0.00 | 0.08 | 0.08 | 58 | 1011.6 |
| 20260505224855 | 10 | 138 | 4.8 | 9.7 | 0.00 | 0.08 | 0.08 | 61 | 1011.6 |
| 20260505224338 | 10 | 141 | 6.4 | 14.5 | 0.00 | 0.08 | 0.08 | 60 | 1011.3 |
| 20260505223854 | 10 | 140 | 8.0 | 14.5 | 0.00 | 0.08 | 0.08 | 60 | 1011.3 |
| 20260505223338 | 11 | 131 | 1.6 | 9.7 | 0.00 | 0.08 | 0.08 | 61 | 1011.3 |
| 20260505222849 | 11 | 260 | 4.8 | 9.7 | 0.00 | 0.08 | 0.08 | 57 | 1011.9 |
| 20260505222349 | 10 | 206 | 4.8 | 8.0 | 0.00 | 0.08 | 0.08 | 61 | 1011.9 |
| 20260505221832 | 10 | 244 | 0.0 | 4.8 | 0.00 | 0.08 | 0.08 | 63 | 1011.9 |
| 20260505221341 | 10 | 5 | 0.0 | 4.8 | 0.00 | 0.08 | 0.08 | 63 | 1012.2 |
| 20260505220913 | 10 | 72 | 0.0 | 3.2 | 0.00 | 0.08 | 0.08 | 59 | 1012.2 |
| 20260505220335 | 10 | 72 | 0.0 | 4.8 | 0.00 | 0.08 | 0.08 | 58 | 1012.2 |
| 20260505215845 | 10 | 72 | 0.0 | 4.8 | 0.00 | 0.08 | 0.08 | 60 | 1011.5 |
| 20260505215330 | 10 | 177 | 0.0 | 4.8 | 0.00 | 0.08 | 0.08 | 61 | 1011.5 |
| 20260505214857 | 10 | 177 | 0.0 | 4.8 | 0.00 | 0.08 | 0.08 | 57 | 1011.5 |
| 20260505214359 | 10 | 177 | 1.6 | 6.4 | 0.00 | 0.08 | 0.08 | 58 | 1012.3 |
| 20260505213842 | 10 | 177 | 1.6 | 6.4 | 0.00 | 0.08 | 0.08 | 60 | 1012.3 |
| 20260505213353 | 10 | 129 | 1.6 | 6.4 | 0.00 | 0.08 | 0.08 | 60 | 1012.3 |
| 20260505212842 | 10 | 158 | 1.6 | 6.4 | 0.00 | 0.08 | 0.08 | 61 | 1012.0 |
| 20260505212351 | 10 | 138 | 4.8 | 6.4 | 0.00 | 0.08 | 0.08 | 63 | 1012.0 |
| 20260505211835 | 10 | 165 | 3.2 | 4.8 | 0.00 | 0.08 | 0.08 | 61 | 1012.0 |
| 20260505211339 | 10 | 225 | 0.0 | 6.4 | 0.00 | 0.08 | 0.08 | 59 | 1011.9 |
| 20260505210843 | 10 | 145 | 0.0 | 8.0 | 0.00 | 0.08 | 0.08 | 57 | 1011.9 |
| 20260505210346 | 10 | 154 | 4.8 | 12.9 | 0.00 | 0.08 | 0.08 | 61 | 1011.9 |
| 20260505205831 | 10 | 140 | 3.2 | 14.5 | 0.00 | 0.08 | 0.08 | 59 | 1012.0 |
| 20260505205341 | 10 | 129 | 6.4 | 14.5 | 0.00 | 0.08 | 0.08 | 59 | 1012.0 |
| 20260505204852 | 10 | 165 | 0.0 | 14.5 | 0.00 | 0.08 | 0.08 | 58 | 1012.0 |
| 20260505204335 | 11 | 178 | 3.2 | 14.5 | 0.00 | 0.08 | 0.08 | 57 | 1012.0 |
| 20260505203841 | 11 | 88 | 1.6 | 11.3 | 0.00 | 0.08 | 0.08 | 57 | 1012.0 |
| 20260505203345 | 11 | 136 | 6.4 | 11.3 | 0.00 | 0.08 | 0.08 | 59 | 1012.0 |
| 20260505202847 | 11 | 84 | 6.4 | 9.7 | 0.00 | 0.08 | 0.08 | 57 | 1012.0 |
| 20260505202331 | 10 | 125 | 3.2 | 11.3 | 0.00 | 0.08 | 0.08 | 58 | 1012.0 |
| 20260505201841 | 10 | 138 | 6.4 | 11.3 | 0.00 | 0.08 | 0.08 | 58 | 1012.0 |
| 20260505201349 | 10 | 136 | 3.2 | 9.7 | 0.00 | 0.08 | 0.08 | 60 | 1012.4 |
| 20260505200856 | 10 | 75 | 3.2 | 9.7 | 0.00 | 0.08 | 0.08 | 62 | 1012.4 |
| 20260505200351 | 10 | 106 | 4.8 | 9.7 | 0.00 | 0.08 | 0.08 | 61 | 1012.4 |
| 20260505195851 | 10 | 111 | 4.8 | 9.7 | 0.00 | 0.08 | 0.08 | 62 | 1012.5 |
| 20260505195355 | 10 | 96 | 4.8 | 9.7 | 0.00 | 0.08 | 0.08 | 62 | 1012.5 |
| 20260505194857 | 10 | 146 | 1.6 | 9.7 | 0.00 | 0.08 | 0.08 | 64 | 1012.5 |
| 20260505194352 | 9 | 169 | 1.6 | 9.7 | 0.00 | 0.08 | 0.08 | 64 | 1012.5 |
| 20260505193845 | 9 | 102 | 3.2 | 9.7 | 0.00 | 0.08 | 0.08 | 64 | 1012.5 |
| 20260505193353 | 9 | 119 | 6.4 | 11.3 | 0.00 | 0.08 | 0.08 | 64 | 1012.5 |
| 20260505192849 | 9 | 124 | 1.6 | 11.3 | 0.00 | 0.08 | 0.08 | 64 | 1012.8 |
| 20260505192350 | 9 | 156 | 4.8 | 11.3 | 0.00 | 0.08 | 0.08 | 65 | 1012.8 |
| 20260505191832 | 9 | 121 | 0.0 | 9.7 | 0.00 | 0.08 | 0.08 | 65 | 1012.8 |
| 20260505191346 | 9 | 133 | 1.6 | 9.7 | 0.00 | 0.08 | 0.08 | 65 | 1012.4 |
| 20260505190855 | 9 | 85 | 1.6 | 11.3 | 0.00 | 0.08 | 0.08 | 66 | 1012.4 |
| 20260505190402 | 10 | 119 | 6.4 | 11.3 | 0.00 | 0.08 | 0.08 | 64 | 1012.4 |
| 20260505185903 | 9 | 161 | 1.6 | 9.7 | 0.00 | 0.08 | 0.08 | 65 | 1012.4 |
| 20260505185343 | 9 | 141 | 6.4 | 11.3 | 0.00 | 0.08 | 0.08 | 65 | 1012.4 |
| 20260505184843 | 9 | 145 | 6.4 | 11.3 | 0.00 | 0.08 | 0.08 | 67 | 1012.4 |
| 20260505184350 | 8 | 146 | 4.8 | 16.1 | 0.00 | 0.08 | 0.08 | 65 | 1012.4 |
| 20260505183831 | 8 | 177 | 8.0 | 16.1 | 0.00 | 0.08 | 0.08 | 67 | 1012.4 |
| 20260505183339 | 8 | 132 | 9.7 | 16.1 | 0.00 | 0.08 | 0.08 | 68 | 1012.4 |
| 20260505182849 | 8 | 154 | 6.4 | 17.7 | 0.00 | 0.08 | 0.08 | 70 | 1012.8 |
| 20260505182346 | 8 | 141 | 8.0 | 17.7 | 0.00 | 0.08 | 0.08 | 69 | 1012.8 |
| 20260505181854 | 8 | 163 | 8.0 | 17.7 | 0.00 | 0.08 | 0.08 | 71 | 1012.8 |
| 20260505181355 | 8 | 142 | 9.7 | 17.7 | 0.00 | 0.08 | 0.08 | 70 | 1012.5 |
| 20260505180904 | 8 | 158 | 8.0 | 17.7 | 0.00 | 0.08 | 0.08 | 70 | 1012.5 |
| 20260505180351 | 8 | 196 | 4.8 | 17.7 | 0.00 | 0.08 | 0.08 | 70 | 1012.5 |
| 20260505175852 | 8 | 154 | 8.0 | 17.7 | 0.00 | 0.08 | 0.08 | 70 | 1012.6 |
| 20260505175417 | 8 | 170 | 4.8 | 17.7 | 0.00 | 0.08 | 0.08 | 70 | 1012.6 |
| 20260505174855 | 8 | 146 | 1.6 | 11.3 | 0.00 | 0.08 | 0.08 | 69 | 1012.6 |
| 20260505174354 | 8 | 129 | 3.2 | 14.5 | 0.00 | 0.08 | 0.08 | 70 | 1012.5 |
| 20260505173905 | 8 | 164 | 6.4 | 17.7 | 0.00 | 0.08 | 0.08 | 72 | 1012.5 |
| 20260505173330 | 8 | 123 | 8.0 | 16.1 | 0.00 | 0.08 | 0.08 | 74 | 1012.5 |
| 20260505172906 | 8 | 128 | 8.0 | 17.7 | 0.00 | 0.08 | 0.08 | 74 | 1012.8 |
| 20260505172351 | 8 | 125 | 8.0 | 17.7 | 0.00 | 0.08 | 0.08 | 75 | 1012.8 |
| 20260505171851 | 8 | 121 | 6.4 | 16.1 | 0.00 | 0.08 | 0.08 | 78 | 1012.8 |
| 20260505171350 | 7 | 145 | 8.0 | 14.5 | 0.00 | 0.08 | 0.08 | 77 | 1012.6 |
| 20260505170830 | 7 | 140 | 9.7 | 14.5 | 0.00 | 0.08 | 0.08 | 78 | 1012.6 |
| 20260505170340 | 7 | 152 | 3.2 | 19.3 | 0.00 | 0.08 | 0.08 | 75 | 1012.6 |
| 20260505165849 | 7 | 117 | 8.0 | 19.3 | 0.00 | 0.08 | 0.08 | 74 | 1012.6 |
| 20260505165347 | 7 | 143 | 8.0 | 16.1 | 0.00 | 0.08 | 0.08 | 75 | 1012.6 |
| 20260505164850 | 7 | 169 | 6.4 | 16.1 | 0.00 | 0.08 | 0.08 | 75 | 1012.6 |
| 20260505164351 | 7 | 139 | 9.7 | 16.1 | 0.00 | 0.08 | 0.08 | 77 | 1012.9 |
| 20260505163833 | 7 | 122 | 8.0 | 17.7 | 0.00 | 0.08 | 0.08 | 77 | 1012.9 |
| 20260505163350 | 7 | 136 | 9.7 | 17.7 | 0.00 | 0.08 | 0.08 | 78 | 1012.9 |
| 20260505162856 | 7 | 170 | 12.9 | 17.7 | 0.00 | 0.08 | 0.08 | 78 | 1012.9 |
| 20260505162336 | 7 | 163 | 8.0 | 16.1 | 0.00 | 0.08 | 0.08 | 78 | 1012.9 |
| 20260505161901 | 7 | 136 | 8.0 | 17.7 | 0.00 | 0.08 | 0.08 | 79 | 1012.9 |
| 20260505161343 | 7 | 152 | 8.0 | 20.9 | 0.00 | 0.08 | 0.08 | 79 | 1012.5 |
| 20260505160846 | 7 | 169 | 14.5 | 20.9 | 0.00 | 0.08 | 0.08 | 79 | 1012.5 |
| 20260505160354 | 7 | 132 | 9.7 | 19.3 | 0.00 | 0.08 | 0.08 | 80 | 1012.5 |
| 20260505153340 | 7 | 159 | 6.4 | 16.1 | 0.03 | 0.08 | 0.08 | 80 | 1012.1 |
| 20260505152850 | 7 | 71 | 3.2 | 17.7 | 0.03 | 0.08 | 0.08 | 79 | 1012.0 |
| 20260505152332 | 7 | 177 | 4.8 | 14.5 | 0.03 | 0.08 | 0.08 | 81 | 1012.0 |
| 20260505151849 | 7 | 162 | 4.8 | 14.5 | 0.03 | 0.08 | 0.08 | 79 | 1012.0 |
| 20260505151355 | 7 | 100 | 8.0 | 14.5 | 0.05 | 0.08 | 0.08 | 79 | 1011.9 |
| 20260505150918 | 7 | 117 | 4.8 | 24.1 | 0.05 | 0.08 | 0.08 | 78 | 1011.9 |
| 20260505150356 | 7 | 102 | 14.5 | 24.1 | 0.05 | 0.08 | 0.08 | 77 | 1011.9 |
| 20260505140343 | 7 | 78 | 4.8 | 14.5 | 0.03 | 0.03 | 0.03 | 75 | 1011.9 |
| 20260505124917 | 10 | 140 | 4.8 | 16.1 | 0.00 | 0.00 | 0.00 | 65 | 1010.7 |
| 20260505124338 | 10 | 152 | 3.2 | 16.1 | 0.00 | 0.00 | 0.00 | 64 | 1010.4 |
| 20260505123848 | 9 | 96 | 3.2 | 9.7 | 0.00 | 0.00 | 0.00 | 64 | 1010.4 |
| 20260505123332 | 10 | 98 | 4.8 | 9.7 | 0.00 | 0.00 | 0.00 | 63 | 1010.4 |
| 20260505122845 | 10 | 148 | 4.8 | 9.7 | 0.00 | 0.00 | 0.00 | 63 | 1010.5 |
| 20260505122330 | 9 | 144 | 6.4 | 9.7 | 0.00 | 0.00 | 0.00 | 64 | 1010.5 |
| 20260505121836 | 9 | 106 | 4.8 | 9.7 | 0.00 | 0.00 | 0.00 | 64 | 1010.5 |
| 20260505121404 | 10 | 140 | 6.4 | 9.7 | 0.00 | 0.00 | 0.00 | 64 | 1010.4 |
| 20260505120848 | 10 | 164 | 3.2 | 8.0 | 0.00 | 0.00 | 0.00 | 66 | 1010.4 |
| 20260505120331 | 10 | 86 | 4.8 | 8.0 | 0.00 | 0.00 | 0.00 | 66 | 1010.4 |
| 20260505115909 | 10 | 69 | 4.8 | 9.7 | 0.00 | 0.00 | 0.00 | 67 | 1010.6 |
| 20260505115332 | 10 | 67 | 4.8 | 11.3 | 0.00 | 0.00 | 0.00 | 67 | 1010.6 |
| 20260505114840 | 10 | 72 | 4.8 | 14.5 | 0.00 | 0.00 | 0.00 | 66 | 1010.6 |
| 20260505114344 | 10 | 119 | 3.2 | 14.5 | 0.00 | 0.00 | 0.00 | 66 | 1010.6 |
| 20260505113846 | 10 | 122 | 6.4 | 14.5 | 0.00 | 0.00 | 0.00 | 66 | 1010.6 |
| 20260505113328 | 10 | 102 | 6.4 | 14.5 | 0.00 | 0.00 | 0.00 | 67 | 1010.6 |
| 20260505112842 | 10 | 127 | 4.8 | 14.5 | 0.00 | 0.00 | 0.00 | 67 | 1010.6 |
| 20260505112352 | 10 | 86 | 6.4 | 12.9 | 0.00 | 0.00 | 0.00 | 68 | 1010.6 |
| 20260505111903 | 10 | 98 | 4.8 | 9.7 | 0.00 | 0.00 | 0.00 | 69 | 1010.6 |
| 20260505111406 | 10 | 88 | 3.2 | 8.0 | 0.00 | 0.00 | 0.00 | 70 | 1010.9 |
| 20260505110915 | 10 | 126 | 4.8 | 9.7 | 0.00 | 0.00 | 0.00 | 72 | 1010.9 |
| 20260505110336 | 10 | 116 | 4.8 | 9.7 | 0.00 | 0.00 | 0.00 | 72 | 1010.9 |
| 20260505101836 | 10 | 141 | 6.4 | 16.1 | 0.00 | 0.00 | 0.00 | 77 | 1011.0 |
| 20260505101345 | 10 | 127 | 9.7 | 16.1 | 0.00 | 0.00 | 0.00 | 75 | 1010.6 |
| 20260505100844 | 10 | 121 | 3.2 | 11.3 | 0.00 | 0.00 | 0.00 | 71 | 1010.6 |
| 20260505100347 | 10 | 136 | 3.2 | 11.3 | 0.00 | 0.00 | 0.00 | 69 | 1010.6 |
| 20260505095852 | 10 | 71 | 3.2 | 8.0 | 0.00 | 0.00 | 0.00 | 67 | 1010.6 |
| 20260505095355 | 10 | 92 | 3.2 | 6.4 | 0.00 | 0.00 | 0.00 | 68 | 1010.6 |
| 20260505094838 | 10 | 119 | 3.2 | 6.4 | 0.00 | 0.00 | 0.00 | 70 | 1010.6 |
| 20260505094348 | 10 | 125 | 3.2 | 14.5 | 0.00 | 0.00 | 0.00 | 70 | 1010.8 |
| 20260505093837 | 10 | 152 | 3.2 | 14.5 | 0.00 | 0.00 | 0.00 | 74 | 1010.8 |
| 20260505093343 | 10 | 182 | 4.8 | 8.0 | 0.00 | 0.00 | 0.00 | 68 | 1010.8 |
| 20260505092849 | 10 | 131 | 0.0 | 6.4 | 0.00 | 0.00 | 0.00 | 67 | 1010.7 |
| 20260505092331 | 11 | 144 | 0.0 | 6.4 | 0.00 | 0.00 | 0.00 | 66 | 1010.7 |
| 20260505091902 | 11 | 146 | 3.2 | 6.4 | 0.00 | 0.00 | 0.00 | 65 | 1010.7 |
| 20260505091356 | 11 | 160 | 3.2 | 6.4 | 0.00 | 0.00 | 0.00 | 63 | 1010.5 |
| 20260505090839 | 11 | 154 | 1.6 | 4.8 | 0.00 | 0.00 | 0.00 | 63 | 1010.5 |
| 20260505090349 | 11 | 154 | 1.6 | 4.8 | 0.00 | 0.00 | 0.00 | 61 | 1010.5 |
| 20260505085845 | 11 | 153 | 1.6 | 4.8 | 0.00 | 0.00 | 0.00 | 61 | 1010.5 |
| 20260505085347 | 11 | 153 | 0.0 | 6.4 | 0.00 | 0.00 | 0.00 | 60 | 1010.5 |
| 20260505084848 | 11 | 151 | 0.0 | 6.4 | 0.00 | 0.00 | 0.00 | 60 | 1010.5 |
| 20260505084351 | 11 | 148 | 1.6 | 14.5 | 0.00 | 0.00 | 0.00 | 61 | 1010.4 |
| 20260505083832 | 11 | 164 | 1.6 | 14.5 | 0.00 | 0.00 | 0.00 | 61 | 1010.4 |
| 20260505083342 | 11 | 96 | 4.8 | 11.3 | 0.00 | 0.00 | 0.00 | 63 | 1010.4 |
| 20260505082851 | 11 | 99 | 4.8 | 11.3 | 0.00 | 0.00 | 0.00 | 62 | 1010.7 |
| 20260505082347 | 10 | 140 | 4.8 | 9.7 | 0.00 | 0.00 | 0.00 | 67 | 1010.7 |
| 20260505081831 | 10 | 126 | 3.2 | 6.4 | 0.00 | 0.00 | 0.00 | 69 | 1010.7 |
| 20260505081340 | 10 | 112 | 0.0 | 9.7 | 0.00 | 0.00 | 0.00 | 70 | 1011.2 |
| 20260505080841 | 10 | 118 | 1.6 | 9.7 | 0.00 | 0.00 | 0.00 | 71 | 1011.2 |
| 20260505080354 | 10 | 113 | 4.8 | 19.3 | 0.00 | 0.00 | 0.00 | 71 | 1011.2 |
| 20260505075832 | 10 | 68 | 1.6 | 19.3 | 0.00 | 0.00 | 0.00 | 71 | 1011.2 |
| 20260505075345 | 10 | 138 | 3.2 | 11.3 | 0.00 | 0.00 | 0.00 | 75 | 1011.2 |
| 20260505074855 | 10 | 150 | 4.8 | 11.3 | 0.00 | 0.00 | 0.00 | 76 | 1011.2 |
| 20260505074354 | 10 | 167 | 3.2 | 11.3 | 0.00 | 0.00 | 0.00 | 77 | 1011.4 |
| 20260505073835 | 10 | 127 | 6.4 | 12.9 | 0.00 | 0.00 | 0.00 | 79 | 1011.4 |
| 20260505073405 | 10 | 139 | 6.4 | 12.9 | 0.00 | 0.00 | 0.00 | 78 | 1011.4 |
| 20260505072854 | 10 | 148 | 4.8 | 11.3 | 0.00 | 0.00 | 0.00 | 82 | 1011.5 |
| 20260505072404 | 10 | 144 | 8.0 | 12.9 | 0.00 | 0.00 | 0.00 | 81 | 1011.5 |
| 20260505071850 | 10 | 122 | 3.2 | 14.5 | 0.00 | 0.00 | 0.00 | 81 | 1011.5 |
| 20260505071347 | 10 | 123 | 6.4 | 14.5 | 0.00 | 0.00 | 0.00 | 81 | 1011.2 |
| 20260505070848 | 10 | 104 | 6.4 | 16.1 | 0.00 | 0.00 | 0.00 | 80 | 1011.2 |
| 20260505070330 | 10 | 144 | 8.0 | 16.1 | 0.00 | 0.00 | 0.00 | 79 | 1011.2 |
| 20260505065907 | 10 | 124 | 4.8 | 17.7 | 0.00 | 0.00 | 0.00 | 78 | 1011.4 |
| 20260505065357 | 10 | 146 | 4.8 | 17.7 | 0.00 | 0.00 | 0.00 | 77 | 1011.4 |
| 20260505064839 | 10 | 171 | 8.0 | 20.9 | 0.00 | 0.00 | 0.00 | 75 | 1011.4 |
| 20260505064350 | 10 | 90 | 8.0 | 22.5 | 0.00 | 0.00 | 0.00 | 74 | 1011.4 |
| 20260505063857 | 10 | 145 | 11.3 | 22.5 | 0.00 | 0.00 | 0.00 | 74 | 1011.4 |
| 20260505063338 | 10 | 142 | 12.9 | 22.5 | 0.00 | 0.00 | 0.00 | 72 | 1011.4 |
| 20260505062909 | 10 | 179 | 14.5 | 24.1 | 0.00 | 0.00 | 0.00 | 72 | 1011.5 |
| 20260505062330 | 10 | 142 | 12.9 | 24.1 | 0.00 | 0.00 | 0.00 | 73 | 1011.5 |
| 20260505061842 | 10 | 156 | 11.3 | 20.9 | 0.00 | 0.00 | 0.00 | 73 | 1011.5 |
| 20260505061415 | 10 | 140 | 11.3 | 20.9 | 0.00 | 0.00 | 0.00 | 74 | 1011.6 |
| 20260505060852 | 10 | 179 | 6.4 | 24.1 | 0.00 | 0.00 | 0.00 | 74 | 1011.6 |
| 20260505060334 | 10 | 131 | 14.5 | 25.7 | 0.00 | 0.00 | 0.00 | 75 | 1011.6 |
| 20260505055838 | 10 | 125 | 12.9 | 25.7 | 0.00 | 0.00 | 0.00 | 76 | 1011.7 |
| 20260505055341 | 10 | 139 | 16.1 | 24.1 | 0.00 | 0.00 | 0.00 | 77 | 1011.7 |
| 20260505054853 | 10 | 128 | 9.7 | 24.1 | 0.00 | 0.00 | 0.00 | 76 | 1011.7 |
| 20260505054336 | 10 | 177 | 12.9 | 20.9 | 0.00 | 0.00 | 0.00 | 76 | 1011.6 |
| 20260505053847 | 10 | 163 | 12.9 | 22.5 | 0.00 | 0.00 | 0.00 | 75 | 1011.6 |
| 20260505053327 | 11 | 164 | 9.7 | 25.7 | 0.00 | 0.00 | 0.00 | 75 | 1011.6 |
| 20260505052854 | 11 | 142 | 14.5 | 30.6 | 0.00 | 0.00 | 0.00 | 73 | 1011.6 |
| 20260505052354 | 11 | 113 | 17.7 | 30.6 | 0.00 | 0.00 | 0.00 | 73 | 1011.6 |
| 20260505051833 | 11 | 177 | 11.3 | 29.0 | 0.00 | 0.00 | 0.00 | 75 | 1011.6 |
| 20260505051342 | 11 | 15 | 16.1 | 29.0 | 0.00 | 0.00 | 0.00 | 75 | 1012.0 |
| 20260505050832 | 11 | 121 | 9.7 | 29.0 | 0.00 | 0.00 | 0.00 | 75 | 1012.0 |
| 20260505050349 | 11 | 138 | 19.3 | 29.0 | 0.00 | 0.00 | 0.00 | 75 | 1012.0 |
| 20260505041353 | 11 | 48 | 12.9 | 24.1 | 0.00 | 0.00 | 0.00 | 75 | 1011.0 |
| 20260505040835 | 12 | 289 | 11.3 | 24.1 | 0.00 | 0.00 | 0.00 | 74 | 1011.0 |
| 20260505040351 | 12 | 178 | 14.5 | 24.1 | 0.00 | 0.00 | 0.00 | 69 | 1011.0 |
| 20260505035831 | 12 | 121 | 12.9 | 24.1 | 0.00 | 0.00 | 0.00 | 68 | 1010.8 |
| 20260505035355 | 12 | 142 | 11.3 | 22.5 | 0.00 | 0.00 | 0.00 | 65 | 1010.8 |
| 20260505034856 | 13 | 131 | 9.7 | 22.5 | 0.00 | 0.00 | 0.00 | 62 | 1010.8 |
| 20260505034358 | 13 | 163 | 11.3 | 27.4 | 0.00 | 0.00 | 0.00 | 62 | 1010.1 |